Bandera, Texas, United States (78003)
Lat: 29.73N, Lon: 99.07W
Wx Zone: TXZ187
Local Info
Past Weather Observations for Yesterday

NOTE: This archive is for the closest National Weather Service station to Bandera. Information may differ from the station used for current weather conditions.

Click here for Long-term Archive

Time Weather Temperature Dewpoint Humidity Pressure Winds Precip Visibility
23:51
Overcast
Fog And Mist
57°F / 14°C 57°F / 14°C 100% 29.86 in
(1011 mb)
E 6.9 mph
(E 11 kph)
- 1 3/4SM
23:39
Overcast
Fog And Mist
57°F / 14°C 55°F / 13°C 94% 29.86 in
(1011 mb)
ENE 6.9 mph
(ENE 11 kph)
- 2SM
23:28
Overcast
Fog And Mist
57°F / 14°C 55°F / 13°C 94% 29.86 in
(1011 mb)
E 6.9 mph
(E 11 kph)
- 1 3/4SM
23:13
Overcast
Fog And Mist
57°F / 14°C 55°F / 13°C 94% 29.89 in
(1012 mb)
ENE 6.9 mph
(ENE 11 kph)
- 2SM
22:51
Overcast
Fog And Mist
57°F / 14°C 55°F / 13°C 94% 29.89 in
(1012 mb)
NE 5.8 mph
(NE 9 kph)
- 1 1/2SM
22:14
Overcast
Fog And Mist
57°F / 14°C 55°F / 13°C 94% 29.89 in
(1012 mb)
ENE 5.8 mph
(ENE 9 kph)
- 1 3/4SM
22:01
Overcast
Fog And Mist
57°F / 14°C 55°F / 13°C 94% 29.89 in
(1012 mb)
ENE 5.8 mph
(ENE 9 kph)
- 2 1/2SM
21:51
Overcast
Fog And Mist
57°F / 14°C 55°F / 13°C 94% 29.89 in
(1012 mb)
E 5.8 mph
(E 9 kph)
- 2SM
21:41
Overcast
Fog And Mist
57°F / 14°C 55°F / 13°C 94% 29.89 in
(1012 mb)
E 6.9 mph
(E 11 kph)
- 2SM
21:11
Overcast
Fog And Mist
57°F / 14°C 55°F / 13°C 94% 29.89 in
(1012 mb)
ENE 6.9 mph
(ENE 11 kph)
- 1 1/2SM
20:50
Overcast
Fog And Mist
57°F / 14°C 55°F / 13°C 94% 29.89 in
(1012 mb)
ENE 5.8 mph
(ENE 9 kph)
- 1 1/2SM
20:49
Overcast
Fog And Mist
57°F / 14°C 55°F / 13°C 94% 29.89 in
(1012 mb)
ENE 5.8 mph
(ENE 9 kph)
- 1 1/2SM
20:38
Overcast
Fog And Mist
57°F / 14°C 55°F / 13°C 94% 29.89 in
(1012 mb)
NE 4.6 mph
(NE 7 kph)
- 2SM
20:25
Overcast
Fog And Mist
57°F / 14°C 55°F / 13°C 94% 29.89 in
(1012 mb)
NE 3.5 mph
(NE 6 kph)
- 3SM
19:55
Overcast
Fog And Mist
57°F / 14°C 55°F / 13°C 94% 29.89 in
(1012 mb)
NE 4.6 mph
(NE 7 kph)
- 3SM
19:47
Overcast
Fog And Mist
57°F / 14°C 55°F / 13°C 94% 29.89 in
(1012 mb)
E 6.9 mph
(E 11 kph)
- 2 1/2SM
19:46
Overcast
Fog And Mist
57°F / 14°C 55°F / 13°C 94% 29.89 in
(1012 mb)
E 6.9 mph
(E 11 kph)
- 2 1/2SM
19:21
Overcast
Fog And Mist
57°F / 14°C 55°F / 13°C 94% 29.86 in
(1011 mb)
ESE 9.2 mph
(ESE 15 kph)
- 1 3/4SM
19:17
Overcast
Fog And Mist
57°F / 14°C 55°F / 13°C 94% 29.86 in
(1011 mb)
E 8.1 mph
(E 13 kph)
- 2SM
19:11
Overcast
Fog And Mist
57°F / 14°C 55°F / 13°C 94% 29.86 in
(1011 mb)
SE 6.9 mph
(SE 11 kph)
- 3SM
19:02
Overcast
Fog And Mist
57°F / 14°C 55°F / 13°C 94% 29.86 in
(1011 mb)
SE 4.6 mph
(SE 7 kph)
- 2 1/2SM
18:51
Overcast
Fog And Mist
57°F / 14°C 55°F / 13°C 94% 29.86 in
(1011 mb)
E 3.5 mph
(E 6 kph)
- 1 3/4SM
18:39
Overcast
Fog And Mist
57°F / 14°C 55°F / 13°C 94% 29.86 in
(1011 mb)
Calm - 1 3/4SM
18:33
Overcast
Fog And Mist
57°F / 14°C 55°F / 13°C 94% 29.86 in
(1011 mb)
Calm - 1 3/4SM
18:29
Overcast
Fog And Mist
57°F / 14°C 55°F / 13°C 94% 29.86 in
(1011 mb)
Calm - 1 3/4SM
18:21
Overcast
Fog And Mist
57°F / 14°C 55°F / 13°C 94% 29.86 in
(1011 mb)
Calm - 2SM
18:09
Overcast
Fog And Mist
57°F / 14°C 55°F / 13°C 94% 29.83 in
(1010 mb)
E 5.8 mph
(E 9 kph)
- 2SM
17:57
Overcast
Fog And Mist
57°F / 14°C 55°F / 13°C 94% 29.83 in
(1010 mb)
ESE 5.8 mph
(ESE 9 kph)
- 1 3/4SM
17:51
Overcast
Fog And Mist
57°F / 14°C 55°F / 13°C 94% 29.83 in
(1010 mb)
E 4.6 mph
(E 7 kph)
- 2 1/2SM
17:14
Overcast
Fog And Mist
57°F / 14°C 55°F / 13°C 94% 29.83 in
(1010 mb)
SE 5.8 mph
(SE 9 kph)
- 5SM
16:51
Overcast
Fog And Mist
57°F / 14°C 55°F / 13°C 94% 29.86 in
(1011 mb)
ESE 5.8 mph
(ESE 9 kph)
- 3SM
16:05
Overcast
Fog And Mist
57°F / 14°C 54°F / 12°C 88% 29.86 in
(1011 mb)
ESE 4.6 mph
(ESE 7 kph)
- 6SM
15:51
Overcast
Fog And Mist
57°F / 14°C 54°F / 12°C 88% 29.86 in
(1011 mb)
SE 3.5 mph
(SE 6 kph)
- 5SM
14:51
Overcast
Fog And Mist
57°F / 14°C 54°F / 12°C 88% 29.89 in
(1012 mb)
SE 6.9 mph
(SE 11 kph)
- 5SM
14:37
Overcast
Fog And Mist
57°F / 14°C 54°F / 12°C 88% 29.89 in
(1012 mb)
SSE 3.5 mph
(SSE 6 kph)
- 5SM
13:51
Overcast
Fog And Mist
55°F / 13°C 54°F / 12°C 94% 29.92 in
(1013 mb)
S 4.6 mph
(S 7 kph)
- 4SM
13:15
Overcast
Fog And Mist
55°F / 13°C 54°F / 12°C 94% 29.95 in
(1014 mb)
SSE 5.8 mph
(SSE 9 kph)
- 3SM
12:59
Overcast
Fog And Mist
55°F / 13°C 54°F / 12°C 94% 29.95 in
(1014 mb)
S 5.8 mph
(S 9 kph)
- 2SM
12:51
Overcast
Fog And Mist
55°F / 13°C 54°F / 12°C 94% 29.98 in
(1015 mb)
S 5.8 mph
(S 9 kph)
- 2 1/2SM
11:51
Overcast
Fog And Mist
55°F / 13°C 54°F / 12°C 94% 29.98 in
(1015 mb)
SSE 4.6 mph
(SSE 7 kph)
- 4SM
11:43
Overcast
Fog And Mist
55°F / 13°C 54°F / 12°C 94% 30.01 in
(1016 mb)
SE 6.9 mph
(SE 11 kph)
- 3SM
11:34
Overcast
Fog And Mist
54°F / 12°C 54°F / 12°C 100% 30.01 in
(1016 mb)
SE 4.6 mph
(SE 7 kph)
- 2 1/2SM
11:04
Overcast
Fog And Mist
54°F / 12°C 52°F / 11°C 94% 30.01 in
(1016 mb)
ESE 6.9 mph
(ESE 11 kph)
- 2SM
10:51
Overcast
Fog And Mist
54°F / 12°C 52°F / 11°C 94% 30.01 in
(1016 mb)
E 5.8 mph
(E 9 kph)
- 1 3/4SM
09:51
Overcast
Fog And Mist
52°F / 11°C 48°F / 9°C 88% 30.04 in
(1017 mb)
E 6.9 mph
(E 11 kph)
- 1 1/4SM
09:35
Overcast
Fog And Mist
50°F / 10°C 48°F / 9°C 94% 30.04 in
(1017 mb)
E 5.8 mph
(E 9 kph)
- 1 3/4SM
09:23
Overcast
Fog And Mist
50°F / 10°C 48°F / 9°C 94% 30.04 in
(1017 mb)
ENE 5.8 mph
(ENE 9 kph)
- 2SM
08:51
Overcast
Fog And Mist
50°F / 10°C 48°F / 9°C 94% 30.04 in
(1017 mb)
Calm - 6SM
08:36
Overcast
Fog And Mist
48°F / 9°C 48°F / 9°C 100% 30.04 in
(1017 mb)
Calm - 6SM
07:51
Overcast
Fog And Mist
48°F / 9°C 46°F / 8°C 94% 30.04 in
(1017 mb)
E 4.6 mph
(E 7 kph)
- 5SM
06:51
Overcast
Fog And Mist
48°F / 9°C 46°F / 8°C 94% 30.04 in
(1017 mb)
ENE 4.6 mph
(ENE 7 kph)
0.01 in
(0.25 mm)
4SM
05:51
Overcast
Light Rain
46°F / 8°C 46°F / 8°C 100% 30.04 in
(1017 mb)
Calm 0.00 in
(0.00 mm)
4SM
04:51
Overcast
Fog And Mist
46°F / 8°C 45°F / 7°C 93% 30.04 in
(1017 mb)
NNE 3.5 mph
(NNE 6 kph)
0.00 in
(0.00 mm)
6SM
04:35
Overcast
Light Rain
46°F / 8°C 45°F / 7°C 93% 30.04 in
(1017 mb)
NNE 3.5 mph
(NNE 6 kph)
0.00 in
(0.00 mm)
4SM
04:25
Overcast
Light Rain
46°F / 8°C 45°F / 7°C 93% 30.06 in
(1018 mb)
NNE 3.5 mph
(NNE 6 kph)
0.00 in
(0.00 mm)
5SM
04:00
Overcast
Light Rain
46°F / 8°C 45°F / 7°C 93% 30.06 in
(1018 mb)
ENE 5.8 mph
(ENE 9 kph)
0.00 in
(0.00 mm)
3SM
03:51
Overcast
Light Rain
46°F / 8°C 45°F / 7°C 93% 30.06 in
(1018 mb)
Calm 0.02 in
(0.51 mm)
2 1/2SM
03:46
Overcast
Light Rain
46°F / 8°C 45°F / 7°C 93% 30.06 in
(1018 mb)
Calm 0.02 in
(0.51 mm)
2 1/2SM
03:25
Overcast
Light Rain
46°F / 8°C 45°F / 7°C 93% 30.06 in
(1018 mb)
Calm 0.01 in
(0.25 mm)
2 1/2SM
03:12
Overcast
Light Rain
46°F / 8°C 45°F / 7°C 93% 30.06 in
(1018 mb)
NE 3.5 mph
(NE 6 kph)
0.01 in
(0.25 mm)
2SM
03:03
Overcast
Light Rain
46°F / 8°C 45°F / 7°C 93% 30.06 in
(1018 mb)
NNE 4.6 mph
(NNE 7 kph)
0.00 in
(0.00 mm)
3SM
02:51
Overcast
Light Rain
46°F / 8°C 45°F / 7°C 93% 30.06 in
(1018 mb)
NNE 3.5 mph
(NNE 6 kph)
0.01 in
(0.25 mm)
2 1/2SM
02:43
Overcast
Light Rain
46°F / 8°C 45°F / 7°C 93% 30.06 in
(1018 mb)
NE 3.5 mph
(NE 6 kph)
0.01 in
(0.25 mm)
2SM
02:31
Overcast
Light Rain
46°F / 8°C 45°F / 7°C 93% 30.06 in
(1018 mb)
NE 5.8 mph
(NE 9 kph)
0.01 in
(0.25 mm)
2 1/2SM
02:23
Overcast
Light Rain
46°F / 8°C 45°F / 7°C 93% 30.09 in
(1019 mb)
NE 5.8 mph
(NE 9 kph)
0.01 in
(0.25 mm)
1 1/2SM
02:14
Overcast
Light Rain
46°F / 8°C 45°F / 7°C 93% 30.09 in
(1019 mb)
ENE 5.8 mph
(ENE 9 kph)
0.01 in
(0.25 mm)
1SM
01:51
Overcast
Light Rain
46°F / 8°C 45°F / 7°C 93% 30.09 in
(1019 mb)
ENE 4.6 mph
(ENE 7 kph)
0.00 in
(0.00 mm)
3/4SM
01:46
Overcast
Light Rain
46°F / 8°C 45°F / 7°C 93% 30.09 in
(1019 mb)
ENE 5.8 mph
(ENE 9 kph)
0.00 in
(0.00 mm)
3/4SM
01:27
Overcast
Light Rain
46°F / 8°C 45°F / 7°C 93% 30.09 in
(1019 mb)
ENE 5.8 mph
(ENE 9 kph)
0.00 in
(0.00 mm)
1SM
01:20
Overcast
Light Rain
46°F / 8°C 45°F / 7°C 93% 30.09 in
(1019 mb)
E 5.8 mph
(E 9 kph)
0.00 in
(0.00 mm)
1 1/4SM
01:12
Overcast
Fog And Mist
46°F / 8°C 45°F / 7°C 93% 30.09 in
(1019 mb)
E 5.8 mph
(E 9 kph)
0.00 in
(0.00 mm)
2SM
00:51
Overcast
Light Rain
46°F / 8°C 45°F / 7°C 93% 30.12 in
(1020 mb)
E 6.9 mph
(E 11 kph)
0.01 in
(0.25 mm)
5SM
00:05
Overcast
Light Rain
46°F / 8°C 46°F / 8°C 100% 30.15 in
(1021 mb)
E 6.9 mph
(E 11 kph)
0.01 in
(0.25 mm)
3SM
Time Weather Temperature Dewpoint Humidity Pressure Winds Precip Visibility


Weather for websites

WeatherForYou.com, LLC is not responsible for any damages or problems caused by this service. Current weather conditions are obtained from the closest station including government and personal stations which may have varying degrees of accuracy. Weather forecasts are derived from the NOAA NDFD. Like all things, this site belongs to Jesus Christ... He just trusts me to maintain it. If you have any questions or comments email webmaster@weatherforyou.com

Copyright © 2015, WeatherForYou.com LLC. All rights reserved.